WESTFORD NEEDLES, 19051

Orbit data source: Space-Track

WESTFORD NEEDLES, 19051 is space debris in LEO originally from a launch on Thu, 09 May 1963 UTC launched from the Air Force Western Test Range (AFWTR). Debris objects in space refer to the collection of defunct objects orbiting the Earth. Examples of debris include non-operational satellites, rocket bodies, and fragments generated from explosions, collisions, or faulty payload assembly.

Loading next visibility...
Identifier
19051, 1963-014EA
Orbit
LEO
Country
Flag of USUS
Related business
Manufacturer
Unknown
Mission
Spacecraft
Bus & Motor
Unknown
Mass
Unknown
Launch date (UTC)
1963-05-09 (62 years ago)
Launch vehicle
Unknown
Launch site
Air Force Western Test Range (AFWTR)
Object type
Payload
Rocket body
Debris
Shape & HBR
Unknown shape, 0.2 m
Radar Cross Section
Medium (>0.1 m² and <1 m²)

Expand to show TLE details & history
Last TLE update: 2 days ago

TLE from 2 days ago
0 WESTFORD NEEDLES
1 19051U 63014EA  25285.63685111 -.00000168  00000-0 -77659-1 0  9995
2 19051  87.3826 175.6548 0181872 186.7572 173.0821  8.66779507421892
Epoch: 2025-10-12T15:17Z
TLE epoch observation values (Epoch: 2025-10-12T15:17:03.935Z)
Latitude
-0.00008°
Longitude
-75.06273°
Altitude
3,815.521 km
Speed
6.197 km/s
True Right ascension
11h 42m 37s
True Declination
0° 00' 00"
Sunlit
Object was in daylight at epoch
Visualization orbit readout
Latitude
Unknown
Longitude
Unknown
Altitude
Unknown
Speed
Unknown
Apparent Right ascension
Unknown
Apparent Declination
Unknown
Sunlit
N/A
Visualization observer readout
Local Sidereal Time
09:04:32
Azimuth
Unknown
Elevation
Unknown
Doppler factor
Unknown
Orbital elements
Apogee altitude
3,812.37 km
Perigee altitude
3,448.317 km
Semi-major axis
10,008.48 km
Eccentricity
0.01819
Inclination
87.3826°
RAAN
175.6548°
Arg. of periapsis
186.7572°
True anomaly
173.32758°
Mean anomaly
173.0821°
Eccentric anomaly
173.20539°
Mean motion
2.16766 °/min
Orbital period
166.08 mins
BSTAR
-0.077659

Documentation

Showing up to 5 results
|